Regional Weather Roundup
Issued by NWS

Home | Current Version | Previous Version | Text Only | Print | Product List | Glossary On
Versions: 1 2 3 4 5 6 7 8 9 10 11 12 13 14 15 16 17 18 19 20 21 22 23 24 25 26 27 28 29 30 31 32 33 34 35 36 37 38 39 40 41 42 43 44 45 46 47 48 49 50
301
ASUS43 KFSD 232110
RWRSD

WEATHER ROUNDUP FOR SOUTH DAKOTA
NATIONAL WEATHER SERVICE SIOUX FALLS SD
400 PM CDT SAT SEP 23 2017

NOTE: "FAIR" INDICATES FEW OR NO CLOUDS BELOW 12,000 FEET WITH NO
SIGNIFICANT WEATHER AND/OR OBSTRUCTIONS TO VISIBILITY.


SDZ001>005-009-010-012>017-232200-
NORTHWEST AND NORTH CENTRAL SOUTH DAKOTA

CITY           SKY/WX    TMP DP  RH WIND       PRES   REMARKS
BUFFALO          N/A     46  44  93 NE17      29.97F
FAITH            N/A     49  47  93 NE20      30.00F
MOBRIDGE       CLOUDY    57  47  69 N12       30.00F
$$

SDZ012>016-024>037-041>051-057-063-072>074-232200-
SOUTHWEST AND SOUTH CENTRAL SOUTH DAKOTA

CITY           SKY/WX    TMP DP  RH WIND       PRES   REMARKS
RAPID CTY ARPT LGT RAIN  46  45  93 N10       30.02S FOG
PIERRE         LGT RAIN  51  49  92 N14       29.96F FOG
CUSTER         LGT RAIN  41  39  93 SE5       30.01R FOG
ELLSWORTH AFB  LGT RAIN  46  46 100 N8        30.01F FOG
PHILIP         LGT RAIN  50  49  96 N9        29.98F
PINE RIDGE     LGT RAIN  47  46  97 N5        30.02S
SPEARFISH      LGT RAIN  43  43 100 N5        30.05S
WINNER         TSTM      53  52  96 NE8       29.94F FOG
$$

SDZ004>011-016>023-039-040-232200-
NORTHEAST SOUTH DAKOTA

CITY           SKY/WX    TMP DP  RH WIND       PRES   REMARKS
ABERDEEN       LGT RAIN  53  52  96 NE10      30.00F
WATERTOWN      RAIN      53  53 100 N6        30.00R
BROOKINGS      TSTM      64  63  94 E8        29.94F
SISSETON         N/A     56  53  90 N9        30.00R
$$

SDZ017-020-022-023-036>040-048>070-232200-
SOUTHEAST SOUTH DAKOTA

CITY           SKY/WX    TMP DP  RH WIND       PRES   REMARKS
SIOUX FALLS    CLOUDY    68  66  93 N10       29.90F THUNDER
HURON          LGT RAIN  55  55 100 N9        29.93F
CHAMBERLAIN    DRIZZLE   55  55 100 NE6       29.95S
MITCHELL       LGT RAIN  57  56  96 N6        29.92F
YANKTON        CLOUDY    75  65  70 NE10      29.87F
$$

ABBREVIATIONS USED IN REMARKS
   TC - TEMPERATURE IN CELSIUS
  WCI - WIND CHILL INDEX
   HX - HEAT INDEX
  VSB - VISIBILITY





USA.gov is the U.S. government's official web portal to all federal, state and local government web resources and services.